CDT,Max TemperatureF,Mean TemperatureF,Min TemperatureF,Max Dew PointF,MeanDew PointF,Min DewpointF,Max Humidity, Mean Humidity, Min Humidity, Max Sea Level PressureIn, Mean Sea Level PressureIn, Min Sea Level PressureIn, Max VisibilityMiles, Mean VisibilityMiles, Min VisibilityMiles, Max Wind SpeedMPH, Mean Wind SpeedMPH, Max Gust SpeedMPH,PrecipitationIn, CloudCover, Events, WindDirDegrees
2013-3-1,30,19,5,18,14,3,92,70,51,30.28,30.25,30.17,10,10,10,12,7,18,0.00,3,Snow,12
2013-3-2,30,13,-4,10,5,-8,92,69,34,30.30,30.25,30.17,10,10,10,9,1,,0.00,0,,325
2013-3-3,33,14,-4,9,2,-8,92,61,20,30.17,30.11,30.05,10,10,10,8,1,,0.00,0,,88
2013-3-4,30,22,14,21,15,3,79,64,43,30.08,30.04,29.99,10,10,7,16,6,21,0.00,4,,97
2013-3-5,28,26,24,27,24,21,93,87,74,30.19,30.04,29.97,10,5,0,12,7,,0.11,7,Snow,29
2013-3-6,32,18,3,23,18,0,93,78,55,30.34,30.30,30.19,10,10,10,14,6,17,0.00,4,,314
2013-3-7,35,15,-5,18,7,-9,93,71,41,30.41,30.37,30.34,10,10,10,7,1,,0.00,0,,111
2013-3-8,41,24,8,27,20,7,93,75,52,30.42,30.34,30.21,10,10,7,13,3,,0.00,0,,144
2013-3-9,37,34,32,37,32,27,100,89,75,30.20,29.94,29.76,10,8,0,15,6,23,0.15,6,Fog-Rain,149
2013-3-10,35,34,32,36,34,32,100,99,93,29.85,29.77,29.70,10,4,0,14,4,24,0.48,8,Fog-Rain-Snow,19
2013-3-11,32,30,28,32,29,25,100,94,86,29.79,29.68,29.63,10,7,1,13,5,16,0.03,7,Snow,331
2013-3-12,30,26,21,27,21,14,100,80,64,30.09,29.90,29.79,10,8,1,12,5,21,0.00,5,Snow,277
2013-3-13,32,24,14,16,11,7,86,60,35,30.32,30.26,30.10,10,10,10,13,7,16,0.00,0,,289
2013-3-14,35,24,14,28,21,12,100,84,70,30.30,30.18,30.02,10,8,1,10,2,,0.00,3,Snow,160
2013-3-15,33,28,23,32,29,23,100,97,93,30.02,29.90,29.80,7,4,1,10,2,,0.03,5,Rain-Snow,79
2013-3-16,32,26,19,30,19,10,100,78,55,30.17,30.02,29.84,10,9,2,12,8,21,0.00,4,Snow,358
2013-3-17,30,20,10,16,10,3,79,63,47,30.27,30.15,29.99,10,10,10,15,6,22,0.00,0,,94
2013-3-18,32,24,15,30,19,10,100,84,68,29.98,29.73,29.57,10,5,0,16,5,26,0.08,6,Snow,170
2013-3-19,28,19,10,10,6,3,86,61,37,30.09,29.93,29.73,10,10,5,18,13,26,0.00,1,Snow,269
2013-3-20,23,12,0,3,0,-4,85,58,42,30.12,30.09,30.05,10,10,10,17,8,25,0.00,1,,289
2013-3-21,28,10,-9,9,0,-15,92,66,40,30.09,30.06,30.02,10,10,10,10,2,,0.00,0,,310
2013-3-22,35,16,-2,16,6,-6,92,65,33,30.08,30.05,30.01,10,10,10,7,0,,0.00,0,,265
2013-3-23,37,24,10,21,15,9,93,63,38,30.14,30.09,30.05,10,10,10,7,1,,0.00,1,,346
2013-3-24,32,29,26,27,22,19,80,71,64,30.08,29.96,29.88,10,9,1,15,5,18,0.00,7,Snow,26
2013-3-25,33,27,21,23,20,18,86,68,56,30.16,30.03,29.92,10,10,10,14,9,20,0.00,6,,339
2013-3-26,37,27,17,25,19,14,100,68,38,30.28,30.23,30.16,10,10,10,10,3,16,0.00,4,,317
2013-3-27,41,32,21,27,21,14,93,62,36,30.33,30.31,30.28,10,10,10,9,2,,0.00,5,,275
2013-3-28,44,29,14,21,17,12,100,67,31,30.36,30.33,30.28,10,10,10,8,1,,0.00,0,,296
2013-3-29,48,32,17,27,20,16,100,67,30,30.33,30.27,30.18,10,10,10,7,1,,0.00,1,,182
2013-3-30,48,39,30,43,34,27,100,78,57,30.18,29.96,29.84,10,7,0,13,4,20,0.20,5,Fog-Rain,209
2013-3-31,37,34,30,37,29,16,100,83,48,29.97,29.82,29.77,10,6,0,17,6,26,0.00,5,Fog-Snow,274